PAL284 OMDB-RPLL

Flight info

Callsign PAL284
Flight time N/A
Altitude 35000
Route IVURO M428 MUNGA A777 VAXIM L301 KARKU M638 EXOLU L505 BUSBO L301 MEPIP/N0493F370 L301 BKK/K0913F370 DCT PCA/K0902F390 L628 MESOX/N0487F390 L628 ARESI/N0494F370 L628 GUKUM DCT LUBAN LUBAN5R
Aircraft B77W/H-SDE1E2E3FGHIJ2J3J4J5M1RWXY/LB1D1

Departure

Time 2026-04-22 14:03
Airport Dubai International Airport (OMDB)

Arrival

Time N/A
Airport Ninoy Aquino International Airport (RPLL)
Time Latitude Longitude Altitude Speed Heading
2026-04-22 13:16 25.25587 55.34777 27 ft 0 kts 304°
2026-04-22 13:48 25.25580 55.34789 24 ft 3 kts 304°
2026-04-22 13:48 25.25568 55.34806 23 ft 3 kts 318°
2026-04-22 13:49 25.25552 55.34818 32 ft 3 kts 335°
2026-04-22 13:49 25.25534 55.34824 32 ft 3 kts 353°
2026-04-22 13:49 25.25515 55.34825 31 ft 3 kts
2026-04-22 13:49 25.25497 55.34824 31 ft 3 kts
2026-04-22 13:50 25.25480 55.34823 30 ft 2 kts
2026-04-22 13:50 25.25479 55.34823 30 ft 0 kts
2026-04-22 13:51 25.25481 55.34823 30 ft 2 kts
2026-04-22 13:51 25.25539 55.34860 31 ft 19 kts 33°
2026-04-22 13:51 25.25681 55.34955 30 ft 25 kts 31°
2026-04-22 13:52 25.25830 55.35055 27 ft 26 kts 32°
2026-04-22 13:52 25.25980 55.35156 29 ft 22 kts 31°
2026-04-22 13:52 25.26053 55.35204 27 ft 0 kts 31°
2026-04-22 13:54 25.26096 55.35237 27 ft 18 kts 43°
2026-04-22 13:54 25.26091 55.35348 29 ft 25 kts 116°
2026-04-22 13:55 25.25966 55.35570 24 ft 37 kts 122°
2026-04-22 13:55 25.25835 55.35806 23 ft 35 kts 122°
2026-04-22 13:55 25.25711 55.36029 26 ft 32 kts 122°
2026-04-22 13:55 25.25600 55.36229 27 ft 30 kts 121°
2026-04-22 13:56 25.25486 55.36434 27 ft 34 kts 121°
2026-04-22 13:56 25.25365 55.36654 31 ft 33 kts 121°
2026-04-22 13:56 25.25251 55.36862 30 ft 30 kts 121°
2026-04-22 13:56 25.25141 55.37057 36 ft 30 kts 122°
2026-04-22 13:57 25.25033 55.37253 40 ft 30 kts 121°
2026-04-22 13:57 25.24924 55.37448 43 ft 30 kts 122°
2026-04-22 13:57 25.24825 55.37627 43 ft 22 kts 121°
2026-04-22 13:57 25.24753 55.37760 44 ft 16 kts 121°
2026-04-22 13:58 25.24704 55.37849 44 ft 0 kts 121°
2026-04-22 14:00 25.24689 55.37876 44 ft 7 kts 122°
2026-04-22 14:00 25.24667 55.37925 45 ft 7 kts 96°
2026-04-22 14:00 25.24684 55.37957 45 ft 0 kts 47°
2026-04-22 14:01 25.24723 55.37990 45 ft 16 kts 34°
2026-04-22 14:01 25.24810 55.38025 45 ft 11 kts 344°
2026-04-22 14:01 25.24850 55.37959 45 ft 11 kts 290°
2026-04-22 14:01 25.24861 55.37920 45 ft 0 kts 294°
2026-04-22 14:02 25.24869 55.37903 47 ft 13 kts 300°
2026-04-22 14:02 25.25054 55.37574 45 ft 90 kts 301°
2026-04-22 14:02 25.25517 55.36744 34 ft 162 kts 302°
2026-04-22 14:02 25.26200 55.35520 106 ft 206 kts 304°
2026-04-22 14:03 25.26999 55.34115 587 ft 219 kts 305°
2026-04-22 14:03 25.27834 55.32654 1085 ft 238 kts 306°
2026-04-22 14:03 25.28794 55.31023 1495 ft 266 kts 305°
2026-04-22 14:03 25.29910 55.29410 2231 ft 264 kts 323°
2026-04-22 14:04 25.31580 55.28740 3212 ft 253 kts 358°
2026-04-22 14:04 25.33291 55.28944 3762 ft 246 kts
2026-04-22 14:04 25.34985 55.29137 4001 ft 248 kts
2026-04-22 14:04 25.36703 55.29315 3973 ft 248 kts
2026-04-22 14:05 25.38424 55.29473 3982 ft 246 kts
2026-04-22 14:05 25.39996 55.30136 3967 ft 248 kts 41°
2026-04-22 14:05 25.42460 55.33323 4023 ft 292 kts 50°
2026-04-22 14:06 25.43726 55.35049 3981 ft 287 kts 51°
2026-04-22 14:06 25.44968 55.36753 3969 ft 283 kts 51°
2026-04-22 14:06 25.45799 55.37892 3976 ft 281 kts 51°